Miscellaneous Local Product
Issued by NWS North Platte, NE

Home | Current Version | Previous Version | Graphics & Text | Print | Product List | Glossary On
Versions: 1 2 3 4 5 6 7 8 9 10 11 12 13 14 15 16 17 18 19 20 21 22 23 24 25 26 27 28 29 30 31 32 33 34 35 36 37 38 39 40 41 42 43 44 45 46 47 48 49 50
000
AXUS43 KLBF 251610
MISLBF


WESTERN AND NORTH CENTRAL NEBRASKA HOURLY WEATHER ROUNDUP
NATIONAL WEATHER SERVICE NORTH PLATTE NE
1100 AM CDT SAT APR 25 2015

***STATIONS NOT REPORTING VARIABLES SUCH AS SKY/WEATHER OR
PRESSURE ARE PROVIDED BY THE NEBRASKA DEPARTMENT OF
ROADS...RAWS...AND APRS NETWORKS...AND ARE NOT UNDER
NATIONAL WEATHER SERVICE QUALITY CONTROL***

...OBSERVATIONS IN AND NEAR THE EASTERN PANHANDLE OF NEBRASKA...

CITY           SKY/WX    TMP DP  RH WIND       PRES   REMARKS
PINE RIDGE     CLOUDY    47  45  93 NE6       29.72R FOG
CHADRON        SUNNY     57  46  66 W3        29.71R
ALLIANCE       SUNNY     59  46  62 VRB6      29.71R
SIDNEY         SUNNY     60  45  57 N9        29.73R
WHITECLAY        N/A     44  42  91 N6          N/A
BIG SPRINGS      N/A     58  49  72 NW3         N/A
$$

...OBSERVATIONS IN NORTH CENTRAL NEBRASKA...

CITY           SKY/WX    TMP DP  RH WIND       PRES   REMARKS
VALENTINE      CLOUDY    55  48  77 CALM      29.71R
THEDFORD       CLOUDY    55  50  83 NE9       29.71S
AINSWORTH      CLOUDY    56  50  79 NE10      29.71R
O`NEILL        FOG       48  47  99 NE13      29.71R VSB 1/4
ORD            CLOUDY    53  49  86 N14       29.66R
BROKEN BOW     PTSUNNY   57  50  77 N12       29.67R
BROWNLEE         N/A     53  51  95 N6          N/A
VALENTINE NWR    N/A     48  48  99 N5G13       N/A
SPRINGVIEW       N/A     55  49  82 E8          N/A
HALSEY           N/A     56  49  79 NE6         N/A
BREWSTER         N/A     61  53  75 N6          N/A
ROSE             N/A     53  53  99 N8          N/A
NEWPORT          N/A     50  49  97 NE13        N/A
SARGENT          N/A     54  51  90 MISG        N/A
COMSTOCK         N/A     56  55  99 NE12        N/A
EWING            N/A     47  46  95 NE7         N/A
$$

...OBSERVATIONS IN SOUTHWEST NEBRASKA AND FAR NORTHEAST COLORADO...

CITY           SKY/WX    TMP DP  RH WIND       PRES   REMARKS
WRAY           FAIR      61  45  54 N12       29.72R
HOLYOKE        FAIR      61  46  59 N7        29.72S
IMPERIAL       SUNNY     60  46  59 N10       29.70R
OGALLALA       SUNNY     60  49  68 NE7       29.70R
MCCOOK         SUNNY     63  51  65 NE12      29.68R
LEXINGTON      MOSUNNY   61  52  72 N12       29.66S
PAXTON           N/A     57  51  80 N3          N/A
SUTHERLAND       N/A     56  50  78 NE8         N/A
BRADY            N/A     59  51  74 NW3         N/A
GOTHENBURG       N/A     56  46  70 N10         N/A
CALLAWAY         N/A     55  51  87 NE12        N/A
$$

...NORTH PLATTE AREA...

CITY           SKY/WX    TMP DP  RH WIND       PRES   REMARKS
$$

...SOME WEATHER OBSERVATIONS FROM AROUND THE REGION...

CITY           SKY/WX    TMP DP  RH WIND       PRES   REMARKS
DENVER         PTSUNNY   61  25  25 SW7       29.74S
LARAMIE        CLOUDY    45  31  58 W9        29.80R
CHEYENNE       PTSUNNY   57  32  38 SW8       29.75S
SCOTTSBLUFF    SUNNY     58  32  37 VRB5      29.72S
RAPID CITY     FOG       46  45  96 SE7       29.71R VSB 1/2
PIERRE         CLOUDY    46  45  96 E12       29.75R FOG
WINNER         CLOUDY    52  48  86 E15       29.73R FOG
SIOUX FALLS    CLOUDY    50  42  74 E14       29.73S
OMAHA          CLOUDY    49  45  86 NE16      29.63R
GRAND ISLAND   CLOUDY    50  47  89 NE14      29.66R
KANSAS CITY    CLOUDY    60  55  83 SW7       29.47R
WICHITA        MOSUNNY   69  52  54 W18       29.59R
HAYS           MOSUNNY   64  48  55 NW17      29.64R
LIBERAL        SUNNY     72  43  35 NW15      29.73R
GOODLAND       SUNNY     59  45  59 N12       29.72R
$$



USA.gov is the U.S. government's official web portal to all federal, state and local government web resources and services.